sat.trackr.live / text

‹ back to catalog

STARLINK-37255

NORAD 68554 · 2026-070N

PAYLOAD ACTIVE UNKNOWN

§ Identity

Operator
Country
US
Launch date
2026-04-02
Launch site
AFETR
Launch vehicle
Mass (kg)
RCS (m²)

Purposes: comms

External: N2YO · Heavens-Above · Gunter

§ Orbital elements

Epoch: 2026-05-25T04:00:03.998880Z

Period
93.85 min
Inclination
53.1589°
Eccentricity
0.0000654
Mean motion
15.34387829 rev/d
Perigee alt
462.3 km
Apogee alt
463.2 km
Semi-major
6,840.9 km
B*
2.1963e-4
RAAN
6.8339°
Arg perigee
87.1059°
Mean anomaly
182.3967°
Rev number
601

§ Raw data

STARLINK-372551 68554U 26070N   26145.16671295  .00007049  00000+0  21963-3 0  99912 68554  53.1589   6.8339 0000654  87.1059 182.3967 15.34387829  6018

JSON: /api/v1/satellites/68554 · /tle

For live sub-satellite position, see the globe view (requires WebGL).

§ Visibility from observer

Set your observer location to see the next 7 days of passes ≥ 10°. The values pass through the URL so the page stays shareable.

No JS? Fill the form by hand. The geolocation button needs JavaScript.